Change the Weather History Date:

Tuesday, February 26, 2013

  Actual Average (KLWD) Record (KLWD)
Temperature  
Mean Temperature 30 °F 32 °F  
Max Temperature 32 °F 42 °F 67 °F (1988)
Min Temperature 28 °F 23 °F -14 °F (1963)
Degree Days  
Heating Degree Days 34 33  
Month to date heating degree days 961  
Since 1 July heating degree days 4653  
Cooling Degree Days 0 0  
Month to date cooling degree days 0  
Year to date cooling degree days 0  
Moisture  
Dew Point 28 °F    
Average Humidity 90    
Maximum Humidity 96    
Minimum Humidity 81    
Precipitation  
Precipitation 0.00 in 0.05 in 0.49 in (2013)
Month to date precipitation 1.23  
Sea Level Pressure  
Sea Level Pressure 29.72 in    
Wind  
Wind Speed 15 mph (North)    
Max Wind Speed 28 mph    
Max Gust Speed 39 mph    
Visibility 3 miles    
Events Snow    
T = Trace of Precipitation, MM = Missing Value Source: NWS Daily Summary

Daily Weather History Graph

Daily Weather History Graph

Search for Another Location

Airport or City:

Trip Planner

Search our weather history database for the weather conditions in past years. The results will help you decide how hot, cold, wet, or windy it might be!

Date:

Astronomy

Feb. 26, 2013 Rise Set
Actual Time 6:53 AM CST 6:02 PM CST
Civil Twilight 6:25 AM CST 6:30 PM CST
Nautical Twilight 5:53 AM CST 7:02 PM CST
Astronomical Twilight 5:21 AM CST 7:34 PM CST
Moon 7:21 PM CST (2/26) 6:55 AM CST (2/26)
Length of Visible Light 12h 04m
Length of Day
11h 09m
Full, 99% of the Moon is Illuminated
Feb 26
Full
Mar 4
Last Quarter
Mar 11
New
Mar 19
First Quarter
Mar 27
Full

Hourly Weather History & Observations

Time (CST) Temp. Windchill Dew Point Humidity Pressure Visibility Wind Dir Wind Speed Gust Speed Precip Events Conditions
12:15 AM 32.0 °F 23.0 °F 28.0 °F 85% 29.82 in 10.0 mi NNE 11.5 mph - N/A   Overcast
12:35 AM 32.0 °F 23.0 °F 27.9 °F 85% 29.81 in 7.0 mi NNE 11.5 mph - N/A   Overcast
12:55 AM 32.0 °F 23.0 °F 27.9 °F 85% 29.79 in 7.0 mi NNE 11.5 mph - N/A   Overcast
1:15 AM 32.0 °F 23.6 °F 27.9 °F 85% 29.79 in 7.0 mi NNE 10.4 mph - N/A   Overcast
1:35 AM 32.0 °F 24.2 °F 27.7 °F 84% 29.79 in 7.0 mi North 9.2 mph - N/A   Overcast
1:55 AM 32.0 °F 22.5 °F 27.5 °F 83% 29.78 in 7.0 mi North 12.7 mph 17.3 mph N/A   Overcast
2:15 AM 32.0 °F 22.5 °F 27.3 °F 83% 29.77 in 7.0 mi North 12.7 mph - N/A   Overcast
2:35 AM 31.6 °F 22.1 °F 27.5 °F 85% 29.76 in 7.0 mi North 12.7 mph - N/A   Overcast
2:55 AM 31.8 °F 21.8 °F 27.5 °F 84% 29.75 in 7.0 mi North 13.8 mph - N/A   Overcast
3:15 AM 31.8 °F 21.4 °F 27.3 °F 83% 29.74 in 7.0 mi North 15.0 mph - N/A   Overcast
3:35 AM 31.8 °F 21.8 °F 27.1 °F 83% 29.73 in 7.0 mi North 13.8 mph - N/A   Overcast
3:55 AM 32.0 °F 22.5 °F 27.1 °F 82% 29.74 in 7.0 mi North 12.7 mph 18.4 mph N/A   Overcast
4:15 AM 32.0 °F 22.5 °F 27.1 °F 82% 29.73 in 7.0 mi NNE 12.7 mph - N/A   Overcast
4:35 AM 31.6 °F 21.6 °F 27.3 °F 84% 29.73 in 4.0 mi North 13.8 mph 19.6 mph N/A Snow Light Snow
4:55 AM 30.7 °F 20.4 °F 27.7 °F 88% 29.72 in 1.5 mi NNE 13.8 mph - N/A Snow Light Snow
5:15 AM 30.2 °F 20.2 °F 28.2 °F 92% 29.71 in 1.0 mi North 12.7 mph 21.9 mph N/A Snow Light Snow
5:35 AM 29.8 °F 18.4 °F 28.2 °F 94% 29.71 in 0.8 mi North 16.1 mph 20.7 mph N/A Snow Light Snow
5:55 AM 29.7 °F 19.6 °F 28.2 °F 94% 29.72 in 0.5 mi North 12.7 mph 17.3 mph N/A Snow Snow
6:15 AM 29.3 °F 17.7 °F 28.2 °F 96% 29.72 in 0.5 mi North 16.1 mph 23.0 mph N/A Snow Snow
6:35 AM 29.3 °F 17.0 °F 28.0 °F 95% 29.72 in 0.5 mi North 18.4 mph - N/A Snow Snow
6:55 AM 29.3 °F 17.3 °F 28.0 °F 95% 29.73 in 0.8 mi North 17.3 mph - N/A Snow Snow
7:15 AM 29.3 °F 17.3 °F 28.0 °F 95% 29.73 in 0.5 mi North 17.3 mph 21.9 mph N/A Snow Snow
7:35 AM 29.3 °F 18.2 °F 28.0 °F 95% 29.72 in 0.5 mi North 15.0 mph 21.9 mph N/A Snow Light Snow
7:55 AM 29.3 °F 17.3 °F 28.0 °F 95% 29.72 in 0.5 mi North 17.3 mph - N/A Snow Light Snow
8:15 AM 29.3 °F 18.2 °F 28.0 °F 95% 29.72 in 0.2 mi North 15.0 mph 25.3 mph N/A Snow Snow
8:35 AM 29.3 °F 17.3 °F 27.9 °F 94% 29.72 in 0.8 mi North 17.3 mph 26.5 mph N/A Snow Light Snow
8:55 AM 29.3 °F 17.0 °F 27.5 °F 93% 29.71 in 0.5 mi North 18.4 mph 23.0 mph N/A Snow Light Snow
9:15 AM 29.3 °F 15.9 °F 27.9 °F 94% 29.70 in 0.8 mi North 21.9 mph 28.8 mph N/A Snow Light Snow
9:35 AM 29.8 °F 17.7 °F 27.9 °F 92% 29.69 in 2.0 mi North 18.4 mph 28.8 mph N/A Snow Light Snow
9:55 AM 30.0 °F 17.9 °F 27.5 °F 90% 29.68 in 4.0 mi North 18.4 mph 25.3 mph N/A Snow Light Snow
10:15 AM 30.7 °F 17.8 °F 27.5 °F 88% 29.68 in 3.0 mi North 21.9 mph 27.6 mph N/A Snow Light Snow
10:35 AM 30.6 °F 17.6 °F 27.1 °F 87% 29.68 in 5.0 mi North 21.9 mph 26.5 mph N/A   Overcast
10:55 AM 30.9 °F 19.4 °F 27.3 °F 86% 29.68 in 4.0 mi North 17.3 mph 26.5 mph N/A Snow Light Snow
11:15 AM 31.1 °F 19.3 °F 27.1 °F 85% 29.67 in 7.0 mi North 18.4 mph 25.3 mph N/A   Overcast
11:35 AM 31.5 °F 19.8 °F 27.1 °F 84% 29.66 in 7.0 mi North 18.4 mph 28.8 mph N/A   Overcast
11:55 AM 31.6 °F 20.0 °F 27.1 °F 83% 29.66 in 7.0 mi North 18.4 mph 27.6 mph N/A   Overcast
12:15 PM 32.0 °F 18.1 °F 26.8 °F 81% 29.65 in 7.0 mi North 27.6 mph 34.5 mph N/A   Overcast
12:35 PM 32.0 °F 19.5 °F 27.0 °F 82% 29.64 in 3.0 mi North 21.9 mph 39.1 mph N/A Snow Light Snow
12:55 PM 31.6 °F 18.4 °F 27.5 °F 85% 29.62 in 1.5 mi North 24.2 mph 32.2 mph N/A Snow Light Snow
1:15 PM 30.9 °F 18.4 °F 28.0 °F 89% 29.62 in 1.0 mi North 20.7 mph 27.6 mph N/A Snow Light Snow
1:35 PM 31.1 °F 17.7 °F 27.7 °F 87% 29.62 in 1.5 mi North 24.2 mph 31.1 mph N/A Snow Light Snow
1:55 PM 31.1 °F 18.9 °F 27.5 °F 87% 29.63 in 1.2 mi North 19.6 mph 32.2 mph N/A Snow Light Snow
2:15 PM 31.1 °F 17.7 °F 28.0 °F 88% 29.63 in 1.5 mi North 24.2 mph 29.9 mph N/A Snow Light Snow
2:35 PM 31.5 °F 19.8 °F 28.0 °F 87% 29.64 in 2.5 mi North 18.4 mph 26.5 mph N/A Snow Light Snow
2:55 PM 31.3 °F 17.9 °F 27.9 °F 87% 29.65 in 1.8 mi North 24.2 mph 31.1 mph N/A Snow Light Snow
3:15 PM 31.1 °F 18.6 °F 28.2 °F 89% 29.66 in 1.0 mi North 20.7 mph 25.3 mph N/A Snow Light Snow
3:35 PM 31.5 °F 20.9 °F 28.8 °F 90% 29.67 in 1.0 mi North 15.0 mph 25.3 mph N/A Snow Light Snow
3:55 PM 31.5 °F 20.5 °F 28.9 °F 90% 29.67 in 1.0 mi North 16.1 mph 23.0 mph N/A Snow Light Snow
4:15 PM 31.5 °F 20.5 °F 28.8 °F 90% 29.68 in 1.0 mi North 16.1 mph 21.9 mph N/A Snow Light Snow
4:35 PM 31.3 °F 19.5 °F 29.1 °F 92% 29.68 in 1.2 mi North 18.4 mph 21.9 mph N/A Snow Light Snow
4:55 PM 31.1 °F 19.7 °F 28.9 °F 92% 29.69 in 2.0 mi North 17.3 mph 23.0 mph N/A Snow Light Snow
5:15 PM 30.9 °F 19.4 °F 28.9 °F 92% 29.70 in 1.2 mi North 17.3 mph - N/A Snow Light Snow
5:35 PM 30.9 °F 20.2 °F 28.9 °F 92% 29.71 in 2.5 mi North 15.0 mph 19.6 mph N/A Snow Light Snow
5:55 PM 30.7 °F 20.9 °F 28.4 °F 91% 29.72 in 4.0 mi North 12.7 mph 18.4 mph N/A   Overcast
6:15 PM 30.7 °F 20.9 °F 28.4 °F 91% 29.73 in 5.0 mi North 12.7 mph 17.3 mph N/A Snow Light Snow
6:35 PM 30.6 °F 20.7 °F 28.2 °F 91% 29.74 in 3.0 mi North 12.7 mph - N/A Snow Light Snow
6:55 PM 30.2 °F 20.8 °F 28.4 °F 93% 29.74 in 3.0 mi North 11.5 mph - N/A Snow Light Snow
7:15 PM 30.2 °F 21.3 °F 28.4 °F 93% 29.75 in 3.0 mi North 10.4 mph 16.1 mph N/A Snow Light Snow
7:35 PM 30.4 °F 19.5 °F 28.4 °F 92% 29.75 in 4.0 mi North 15.0 mph 20.7 mph N/A   Overcast
7:55 PM 30.2 °F 20.2 °F 28.4 °F 93% 29.75 in 4.0 mi North 12.7 mph - N/A Snow Light Snow
8:15 PM 30.4 °F 20.0 °F 28.4 °F 92% 29.76 in 4.0 mi NNW 13.8 mph - N/A Snow Light Snow
8:35 PM 30.2 °F 20.8 °F 28.8 °F 94% 29.76 in 2.5 mi NNW 11.5 mph - N/A Snow Light Snow
8:55 PM 30.2 °F 20.8 °F 28.6 °F 94% 29.76 in 1.8 mi NNW 11.5 mph - N/A Snow Light Snow
9:15 PM 30.2 °F 21.3 °F 28.8 °F 94% 29.77 in 1.5 mi NNW 10.4 mph - N/A Snow Light Snow
9:35 PM 30.0 °F 21.1 °F 28.8 °F 95% 29.77 in 1.5 mi NNW 10.4 mph - N/A Snow Light Snow
9:55 PM 30.0 °F 19.5 °F 28.4 °F 94% 29.77 in 2.0 mi NNW 13.8 mph - N/A Snow Light Snow
10:15 PM 30.0 °F 20.0 °F 28.4 °F 94% 29.77 in 2.5 mi NNW 12.7 mph - N/A Snow Light Snow
10:35 PM 30.0 °F 20.0 °F 28.2 °F 93% 29.77 in 4.0 mi NNW 12.7 mph - N/A Snow Light Snow
10:55 PM 30.0 °F 20.0 °F 27.9 °F 92% 29.77 in 5.0 mi NNW 12.7 mph - N/A Snow Light Snow
11:15 PM 29.8 °F 19.3 °F 27.9 °F 92% 29.77 in 2.0 mi NNW 13.8 mph - N/A Snow Light Snow
11:35 PM 29.3 °F 19.6 °F 27.5 °F 93% 29.77 in 2.5 mi NW 11.5 mph - N/A Snow Light Snow
11:55 PM 28.9 °F 18.6 °F 27.1 °F 93% 29.77 in 2.0 mi NW 12.7 mph - N/A Snow Light Snow